Probability
0 0 0 0 0 0 0 0 0 0 0 0 0 0 0 0 0 0 0 0 0 0 0 0 0 0 0 0 0 0 0 0 0 0 0 0 0 0 0 0 0 0 0 0
0 0 0 0 0 0 0 0 0 0 0 0 0 0 0 0 0 0 0 0 0 0 0 0 0 0 0 0 0 0 0 0 0 0 0 0 0 0 0 0 0 0 0 0
0 0 0 0 0 0 0 0 0 0 0 0 0 0 0 0 0 0 0 0 0 0 0 0 0 0 0 0 0 0 0 0 0 0 0 0 0 0 0 0 0 0 0 0
0 0 0 0 0 0 0 0 0 0 0 0 0 0 0 0 0 0 0 0 0 0 0 0 0 0 0 0 0 0 0 0 0 0 0 0 0 0 0 0 0 0 0 0
0 0 0 0 0 0 0 0 0 0 0 0 0 0 0 0 0 0 0 0 0 0 0 0 0 0 0 0 0 0 0 0 0 0 0 0 0 0 0 0 0 0 0 0
0 0 0 0 0 0 0 0 0 0 0 0 0 0 0 0 0 0 0 0 0 0 0 0 0 0 0 0 0 0 0 0 0 0 0 0 0 0 0 0 0 0 0 0
0 0 0 0 0 0 0 0 0 0 0 0 0 0 0 0 0 0 0 0 0 0 0 0 0 0 0 0 0 0 0 0 0 0 0 0 0 0 0 0 0 0 0 0
0 0 0 0 0 0 0 0 0 0 0 0 0 0 0 0 0 0 0 0 0 0 0 0 0 0 0 0 0 0 0 0 0 0 0 0 0 0 0 0 0 0 0 0
0 0 0 0 0 0 0 0 0 0 0 0 0 0 0 0 0 0 0 0 0 0 0 0 0 0 0 0 0 0 0 0 0 0 0 0 0 0 0 0 0 0 0 0
0 0 0 0 0 0 0 0 0 0 0 0 0 0 0 0 0 0 0 0 0 0 0 0 0 0 0 0 0 0 0 0 0 0 0 0 0 0 0 0 0 0 0 0
0 0 0 0 0 0 0 0 0 0 0 0 0 0 0 0 0 0 0 0 0 0 0 0 0 0 0 0 0 0 0 0 0 0 0 0 0 0 0 0 0 0 0 0
0 0 0 0 0 0 0 0 0 0 0 0 0 0 0 0 0 0 0 0 0 0 0 0 0 0 0 0 0 0 0 0 0 0 0 0 0 0 0 0 0 0 0 0
0 0 0 0 0 0 0 0 0 0 0 0 0 0 0 0 0 0 0 0 0 0 0 0 0 0 0 0 0 0 0 0 0 0 0 0 0 0 0 0 0 0 0 0
0 0 0 0 0 0 0 0 0 0 0 0 0 0 0 0 0 0 0 0 0 0 0 0 0 0 0 0 0 0 0 0 0 0 0 0 0 0 0 0 0 0 0 0
0 0 0 0 0 0 0 0 0 0 0 0 0 0 0 0 0 0 0 0 0 0 0 0 0 0 0 0 0 0 0 0 0 0 0 0 0 0 0 0 0 0 0 0
0 0 0 0 0 0 0 0 0 0 0 0 0 0 0 0 0 0 0 0 0 0 0 0 0 0 0 0 0 0 0 0 0 0 0 0 0 0 0 0 0 0 0 0
0 0 0 0 0 0 0 0 0 0 0 0 0 0 0 0 0 0 0 0 0 0 0 0 0 0 0 0 0 0 0 0 0 0 0 0 0 0 0 0 0 0 0 0
0 0 0 0 0 0 0 0 0 0 0 0 0 0 0 0 0 0 0 0 0 0 0 0 0 0 0 0 0 0 0 0 0 0 0 0 0 0 0 0 0 0 0 0
0 0 0 0 0 0 0 0 0 0 0 0 0 0 0 0 0 0 0 0 0 0 0 0 0 0 0 0 0 0 0 0 0 0 0 0 0 0 0 0 0 0 0 0
0 0 0 0 0 0 0 0 0 0 0 0 0 0 0 0 0 0 0 0 0 0 0 0 0 0 0 0 0 0 0 0 0 0 0 0 0 0 0 0 0 0 0 0
0 0 0 0 0 0 0 0 0 0 0 0 0 0 0 0 0 0 0 0 0 0 0 0 0 0 0 0 0 0 0 0 0 0 0 0 0 0 0 0 0 0 0 0
0 0 0 0 0 0 0 0 0 0 0 0 0 0 0 0 0 0 0 0 0 0 0 0 0 0 0 0 0 0 0 0 0 0 0 0 0 0 0 0 0 0 0 0
0 0 0 0 0 0 0 0 0 0 0 0 0 0 0 0 0 0 0 0 0 0 0 0 0 0 0 0 0 0 0 0 0 0 0 0 0 0 0 0 0 0 0 0
0 0 0 0 0 0 0 0 0 0 0 0 0 0 0 0 0 0 0 0 0 0 0 0 0 0 0 0 0 0 0 0 0 0 0 0 0 0 0 0 0 0 0 0
0 0 0 0 0 0 0 0 0 0 0 0 0 0 0 0 0 0 0 0 0 0 0 0 0 0 0 0 0 0 0 0 0 0 0 0 0 0 0 0 0 0 0 0
0 0 0 0 0 0 0 0 0 0 0 0 0 0 0 0 0 0 0 0 0 0 0 0 0 0 0 0 0 0 0 0 0 0 0 0 0 0 0 0 0 0 0 0
Height
5767 5765 5760 5756 5752 5749 5744 5740 5736 5732 5727 5723 5720 5716 5714 5710 5708 5706 5704 5703 5703 5704 5705 5706 5708 5712 5715 5719 5724 5729 5733 5736 5740 5743 5747 5750 5753 5756 5759 5762 5765 5768 5771 5773
5765 5761 5757 5753 5749 5745 5741 5737 5733 5729 5724 5720 5716 5713 5710 5707 5705 5703 5701 5700 5700 5700 5701 5702 5704 5707 5711 5715 5719 5723 5727 5731 5734 5737 5740 5743 5746 5749 5752 5755 5758 5760 5763 5766
5761 5758 5754 5750 5746 5742 5738 5734 5730 5726 5722 5717 5714 5711 5708 5705 5702 5700 5699 5697 5697 5697 5698 5699 5701 5704 5707 5711 5714 5718 5722 5725 5728 5731 5734 5737 5740 5742 5745 5747 5750 5753 5756 5758
5757 5754 5751 5747 5744 5740 5736 5732 5728 5724 5720 5715 5712 5708 5706 5703 5700 5698 5696 5695 5695 5695 5695 5696 5698 5700 5703 5707 5710 5713 5716 5720 5723 5725 5728 5730 5733 5736 5738 5740 5743 5746 5748 5750
5754 5751 5748 5744 5741 5737 5733 5729 5726 5721 5717 5713 5710 5706 5705 5701 5698 5696 5694 5693 5692 5692 5693 5694 5695 5697 5700 5703 5705 5708 5711 5714 5717 5720 5722 5724 5727 5729 5731 5733 5736 5738 5740 5743
5750 5747 5744 5741 5738 5734 5730 5727 5723 5719 5715 5712 5708 5705 5702 5699 5696 5694 5692 5691 5690 5690 5690 5691 5692 5694 5697 5699 5701 5704 5707 5709 5712 5714 5716 5718 5720 5722 5724 5726 5728 5731 5733 5734
5746 5743 5740 5737 5734 5731 5728 5725 5721 5717 5713 5710 5706 5702 5701 5697 5694 5692 5690 5689 5688 5687 5688 5688 5689 5691 5693 5696 5698 5700 5702 5704 5707 5708 5710 5711 5713 5715 5717 5719 5721 5723 5724 5726
5741 5740 5737 5734 5731 5728 5725 5722 5719 5715 5711 5708 5704 5700 5699 5695 5692 5690 5688 5687 5686 5685 5685 5686 5687 5688 5689 5691 5694 5696 5697 5699 5701 5703 5704 5705 5706 5708 5710 5711 5713 5714 5716 5717
5737 5735 5733 5730 5727 5725 5722 5719 5716 5712 5708 5705 5702 5699 5696 5693 5691 5688 5687 5686 5685 5684 5683 5683 5683 5684 5685 5687 5689 5690 5692 5694 5695 5697 5698 5699 5700 5701 5702 5703 5704 5706 5707 5708
5733 5731 5729 5726 5724 5721 5719 5715 5713 5709 5705 5702 5700 5697 5695 5691 5689 5687 5685 5683 5682 5682 5681 5680 5680 5680 5681 5682 5684 5685 5686 5688 5689 5690 5691 5692 5693 5694 5694 5695 5696 5696 5697 5698
5727 5726 5725 5722 5720 5718 5715 5712 5709 5706 5703 5700 5697 5697 5692 5689 5686 5684 5682 5681 5679 5678 5678 5677 5677 5677 5678 5678 5679 5680 5681 5682 5683 5684 5684 5685 5685 5686 5686 5687 5687 5687 5688 5688
5722 5721 5719 5718 5715 5713 5711 5708 5706 5703 5700 5696 5694 5695 5689 5686 5684 5682 5679 5677 5676 5675 5674 5673 5673 5673 5673 5674 5675 5675 5675 5676 5676 5677 5677 5678 5678 5678 5678 5678 5678 5678 5677 5678
5715 5715 5713 5712 5712 5709 5706 5703 5701 5699 5696 5693 5691 5691 5686 5683 5681 5678 5676 5674 5672 5671 5670 5670 5669 5669 5669 5668 5669 5669 5669 5669 5669 5670 5670 5670 5670 5670 5669 5669 5668 5668 5667 5667
5708 5708 5708 5706 5704 5702 5700 5698 5696 5694 5691 5689 5688 5685 5682 5679 5677 5675 5673 5671 5669 5667 5666 5665 5664 5663 5663 5663 5663 5662 5662 5662 5662 5662 5662 5662 5661 5661 5660 5659 5658 5658 5657 5657
5701 5701 5700 5699 5697 5695 5694 5692 5690 5689 5687 5685 5683 5681 5678 5675 5673 5671 5669 5667 5665 5663 5661 5659 5658 5657 5657 5656 5656 5655 5655 5655 5654 5654 5653 5653 5652 5651 5651 5650 5649 5647 5647 5646
5693 5693 5692 5692 5690 5688 5687 5686 5685 5683 5681 5680 5678 5676 5673 5671 5669 5667 5664 5662 5660 5658 5656 5654 5652 5651 5650 5650 5649 5648 5647 5646 5645 5645 5644 5643 5643 5642 5641 5640 5639 5637 5636 5635
5685 5684 5684 5684 5683 5681 5681 5681 5679 5677 5676 5674 5672 5671 5667 5666 5664 5662 5659 5657 5654 5652 5650 5648 5646 5645 5643 5642 5641 5640 5639 5637 5636 5635 5634 5634 5632 5631 5630 5629 5628 5627 5626 5625
5676 5675 5674 5674 5675 5674 5676 5673 5672 5670 5669 5667 5665 5663 5661 5660 5658 5655 5653 5650 5648 5646 5644 5642 5639 5637 5636 5634 5633 5631 5630 5628 5627 5625 5624 5623 5622 5621 5620 5618 5617 5616 5615 5613
5667 5667 5666 5665 5665 5665 5667 5665 5663 5662 5661 5660 5658 5656 5654 5652 5651 5649 5646 5644 5641 5639 5637 5634 5632 5630 5628 5626 5624 5622 5620 5618 5617 5615 5614 5612 5611 5610 5609 5608 5606 5605 5603 5602
5657 5657 5658 5657 5656 5656 5659 5657 5654 5654 5653 5652 5650 5648 5647 5645 5643 5642 5639 5636 5634 5631 5629 5626 5624 5621 5619 5617 5615 5612 5610 5609 5607 5605 5603 5602 5600 5599 5598 5596 5595 5593 5592 5590
5647 5647 5648 5647 5646 5647 5649 5647 5646 5646 5645 5643 5641 5640 5638 5637 5635 5633 5630 5628 5625 5623 5620 5618 5615 5612 5610 5607 5605 5603 5600 5598 5596 5594 5592 5591 5589 5588 5587 5585 5583 5582 5580 5579
5637 5637 5637 5637 5637 5640 5638 5637 5637 5636 5635 5633 5632 5630 5629 5627 5625 5623 5621 5619 5617 5614 5611 5608 5606 5603 5600 5598 5595 5593 5590 5588 5586 5583 5581 5580 5578 5576 5575 5573 5572 5570 5568 5566
5625 5627 5626 5628 5630 5628 5627 5626 5625 5625 5624 5623 5622 5621 5619 5618 5616 5614 5612 5609 5607 5604 5601 5599 5596 5593 5590 5587 5584 5582 5580 5577 5575 5572 5570 5568 5566 5565 5563 5562 5560 5558 5556 5554
5613 5614 5614 5616 5616 5616 5615 5614 5614 5613 5613 5612 5611 5610 5609 5607 5605 5603 5601 5599 5596 5594 5591 5588 5585 5582 5579 5576 5574 5571 5568 5566 5564 5561 5559 5557 5555 5553 5551 5549 5548 5546 5544 5542
5601 5601 5602 5603 5604 5603 5603 5602 5602 5602 5601 5600 5599 5598 5597 5595 5594 5592 5590 5587 5585 5583 5580 5577 5574 5571 5568 5565 5562 5560 5557 5554 5552 5550 5547 5545 5543 5541 5539 5537 5535 5533 5531 5528
5589 5589 5590 5590 5591 5590 5591 5590 5589 5589 5589 5588 5587 5586 5585 5583 5581 5579 5577 5575 5573 5571 5568 5565 5563 5560 5557 5554 5551 5548 5545 5543 5540 5538 5535 5533 5531 5529 5526 5524 5522 5520 5518 5515
Wind_Speed
19 19 19 19 20 20 20 21 22 21 20 18 16 15 15 14 13 12 13 12 12 15 17 19 22 24 26 28 29 29 31 32 32 32 32 33 35 36 36 36 36 36 36 35
18 18 19 19 20 20 21 21 21 21 20 18 16 15 15 14 14 13 13 12 11 13 16 18 20 23 24 25 26 26 27 29 30 31 31 32 33 35 36 36 37 37 36 35
18 18 19 19 19 20 20 20 20 20 19 18 17 15 15 14 14 13 12 12 12 12 14 17 19 21 24 25 24 24 25 27 29 30 30 30 32 33 34 35 36 36 36 35
18 18 18 19 19 19 19 20 20 20 20 18 17 16 14 14 13 12 12 12 11 11 12 15 17 21 23 23 24 24 25 27 28 29 29 29 29 30 32 34 35 36 36 36
18 18 18 19 19 19 19 19 19 19 19 19 17 16 14 14 13 12 12 13 12 11 11 13 15 18 22 23 24 22 23 23 25 27 28 29 29 29 31 34 35 36 36 37
18 18 18 18 19 19 19 19 19 19 19 19 17 16 15 14 13 12 12 12 12 12 11 13 15 17 20 22 23 23 22 22 24 26 28 28 28 28 31 33 35 36 36 37
18 18 18 18 18 19 19 19 19 19 19 19 18 17 15 14 13 12 11 11 12 12 12 13 14 16 19 21 23 24 23 23 24 25 27 29 29 29 31 33 34 36 37 37
18 18 18 18 18 18 19 19 19 19 19 19 18 17 16 15 14 13 12 12 13 14 13 13 14 15 18 21 23 23 24 24 24 25 26 27 28 29 31 32 34 36 38 38
19 18 18 18 18 18 19 19 19 19 19 19 18 17 16 15 15 14 13 12 12 13 15 14 15 17 18 20 22 23 24 24 25 26 26 27 27 28 30 32 34 35 37 38
20 19 18 18 18 19 19 20 19 19 20 20 19 18 16 15 14 14 14 13 13 14 15 15 15 16 18 20 23 24 23 24 25 26 27 28 28 29 31 32 34 35 36 37
21 20 19 19 19 20 19 19 19 19 19 20 20 18 18 16 15 15 15 14 15 15 16 17 16 16 18 21 22 23 25 26 26 26 27 29 30 31 32 34 35 35 36 38
22 22 21 21 21 21 20 20 20 19 19 19 19 19 19 18 16 15 15 14 15 15 16 16 17 18 19 21 23 24 25 26 27 28 28 29 30 31 33 34 36 37 37 38
23 23 23 22 22 22 21 21 20 20 19 19 19 19 19 19 18 17 16 16 15 16 16 17 18 19 20 21 23 24 26 27 28 29 30 31 32 32 33 35 36 37 37 37
25 25 24 24 24 23 22 22 21 21 20 19 19 19 19 19 18 17 17 16 17 17 18 19 20 20 21 22 24 25 27 29 30 31 31 32 33 33 33 34 35 36 36 37
27 27 26 25 25 24 23 23 22 22 21 21 20 20 19 19 19 18 18 18 18 19 20 20 21 21 21 23 24 26 28 29 31 32 33 33 34 34 35 35 35 36 37 38
28 28 27 26 25 25 24 23 23 23 22 22 21 20 20 20 20 20 20 20 21 21 21 22 22 22 23 23 24 26 28 30 32 33 34 34 35 36 36 36 36 37 37 38
29 28 28 27 26 26 25 24 24 24 23 23 22 22 22 21 21 22 22 22 23 23 23 22 23 23 24 25 27 28 29 31 32 33 34 34 35 36 36 36 37 38 38 39
30 29 29 28 28 27 26 25 26 26 25 25 24 23 23 23 23 24 24 25 24 24 24 24 25 25 26 27 28 29 30 30 31 32 33 35 35 35 35 36 37 37 38 39
31 30 30 30 29 29 27 27 27 27 26 26 26 25 25 25 25 26 26 26 26 27 26 27 27 27 28 28 30 30 31 32 32 33 34 35 35 36 36 37 37 38 39 40
32 32 32 31 31 30 28 28 28 29 28 27 27 27 27 27 28 28 28 29 29 29 29 29 30 30 30 31 31 32 32 33 33 34 35 35 36 37 38 38 39 39 40 40
34 34 33 33 33 32 31 31 30 30 30 29 29 29 30 30 30 30 30 31 31 31 31 32 32 32 32 32 32 33 34 34 35 35 36 37 37 38 39 39 39 39 40 40
37 36 35 35 35 33 33 33 32 32 32 31 31 31 31 32 32 32 32 32 32 33 33 34 34 34 34 34 35 35 35 36 36 36 37 38 39 39 40 40 40 40 40 40
39 38 38 37 36 36 36 35 35 34 34 33 34 34 34 34 34 34 34 34 35 35 35 35 36 36 36 36 36 37 37 37 36 36 36 37 38 39 40 41 40 40 41 41
41 40 40 39 38 38 38 38 37 37 37 36 36 36 36 36 36 36 36 37 37 37 36 37 37 37 37 37 38 38 38 38 38 38 38 38 38 39 40 41 41 41 41 42
42 42 41 41 41 41 40 40 40 39 39 39 38 38 38 38 38 38 38 38 38 38 38 38 38 38 38 39 39 39 39 39 39 39 39 39 40 40 41 41 41 41 41 42
42 42 41 41 41 42 41 41 41 41 41 40 40 40 40 40 40 40 40 40 40 40 40 40 40 39 39 39 39 39 39 40 40 40 40 40 40 41 41 41 40 40 41 42
Wind_Direction
324 326 327 327 326 325 325 326 327 327 327 322 317 315 315 312 308 303 289 280 268 256 244 234 229 224 220 220 219 225 228 228 229 233 236 238 239 240 241 240 241 242 243 245
322 325 327 327 326 326 326 326 327 328 328 325 319 317 317 317 311 302 288 280 274 265 254 243 232 226 221 221 221 225 228 231 234 238 240 242 242 243 243 242 241 242 243 247
318 322 325 327 327 327 327 327 327 327 328 325 321 317 318 317 313 304 293 283 278 272 258 245 235 229 225 223 224 229 233 234 237 238 240 242 245 246 245 245 243 244 246 249
313 317 322 325 326 327 327 328 328 327 327 325 323 321 320 320 315 304 298 290 279 273 264 249 239 231 226 226 229 234 237 239 240 240 241 242 245 246 245 244 244 246 249 251
310 314 318 321 324 326 327 328 329 329 327 325 322 321 324 321 316 307 299 292 282 270 264 252 243 234 229 232 235 237 235 239 241 243 245 244 246 247 246 245 246 247 249 251
308 310 314 318 320 323 325 327 327 328 327 326 325 319 322 322 320 313 301 293 284 271 264 257 248 240 237 237 237 240 239 240 242 244 247 247 248 249 248 248 248 249 250 253
307 307 311 314 317 321 323 327 328 329 328 326 326 321 319 320 320 320 310 296 284 276 266 261 252 245 241 240 241 243 243 243 245 248 250 249 249 249 249 249 250 251 252 254
306 305 309 313 317 319 321 323 326 328 329 328 326 324 322 316 317 318 312 300 288 282 275 261 254 251 246 241 240 244 244 246 248 251 253 254 253 252 252 253 252 252 253 254
304 303 306 310 314 318 320 320 322 324 327 327 326 323 322 318 314 314 312 300 290 288 283 273 267 262 252 246 245 248 246 249 250 253 255 256 255 254 254 254 255 255 255 257
299 299 301 305 309 312 316 320 321 323 325 325 324 325 323 320 316 311 308 301 292 289 284 279 276 268 259 253 253 253 251 253 255 257 258 259 259 257 257 257 258 259 259 261
294 295 297 300 304 308 312 315 316 318 320 321 322 323 323 319 315 314 311 305 298 290 286 280 277 274 267 260 259 258 258 258 258 260 262 262 260 260 260 259 260 261 262 263
289 290 291 295 298 300 303 307 311 313 316 318 317 319 321 318 315 311 308 307 303 291 286 284 278 274 272 267 263 263 264 264 263 263 264 264 264 264 265 264 264 264 264 264
286 287 288 291 294 296 297 301 303 307 309 313 314 314 315 315 313 310 308 305 302 294 287 283 280 277 274 272 269 268 268 267 266 266 267 268 267 267 268 269 268 267 266 265
282 284 286 288 291 293 293 295 298 301 305 307 309 308 309 310 311 311 309 305 301 295 289 283 280 279 275 273 273 272 270 269 268 269 270 271 270 270 270 269 269 269 268 268
279 282 283 284 286 288 288 289 292 297 300 302 305 305 305 305 306 307 307 304 301 297 292 288 284 280 277 274 274 273 273 272 271 271 272 272 271 272 271 269 270 269 270 269
277 279 280 281 282 283 284 285 288 291 295 298 299 300 301 302 302 302 303 302 301 298 293 290 287 283 280 277 275 275 275 274 272 272 272 272 271 273 271 271 271 270 271 271
276 277 278 279 280 280 280 284 285 287 290 292 295 297 296 297 298 299 300 300 299 298 295 291 289 287 284 280 279 278 278 277 275 274 273 272 272 272 273 273 272 271 272 273
274 274 276 277 277 278 282 282 283 285 286 288 290 291 292 294 295 297 298 298 298 297 295 293 292 290 288 285 282 279 279 279 278 277 276 275 274 273 274 275 274 273 274 276
271 272 273 275 276 278 279 282 283 284 285 286 286 286 288 291 293 294 295 295 295 295 294 292 292 291 288 286 285 284 282 280 279 278 277 276 275 274 275 276 276 276 277 278
269 269 271 273 276 278 280 281 283 284 284 284 284 285 287 289 290 292 293 293 293 293 292 292 292 291 289 287 286 285 284 282 281 280 279 278 277 275 276 277 277 278 278 279
266 268 270 272 274 277 279 281 282 283 284 284 284 285 286 287 289 290 291 291 292 292 292 292 292 292 291 290 289 288 287 284 282 282 280 279 278 278 278 278 279 279 278 279
266 267 268 270 272 275 278 279 279 280 281 282 282 284 286 287 288 289 290 290 290 291 291 292 292 292 291 290 289 289 288 286 285 283 281 280 279 279 279 279 279 279 278 279
264 265 267 269 272 274 276 277 277 278 278 279 281 282 284 286 287 287 288 288 288 289 290 290 291 291 290 289 289 289 288 288 287 286 283 281 280 280 280 280 280 280 280 281
263 263 265 267 270 272 273 274 275 276 278 279 280 282 283 285 286 286 287 287 287 288 289 290 290 291 290 289 288 289 288 287 287 287 285 283 282 281 281 281 281 281 280 282
262 263 265 267 269 271 271 272 273 275 277 279 280 281 282 284 284 285 285 286 287 287 287 289 289 290 290 289 288 288 288 287 286 286 285 283 283 282 283 283 282 282 281 282
263 263 264 266 268 270 271 272 273 274 276 278 279 280 282 282 283 284 284 285 286 287 287 288 288 289 289 288 288 288 287 287 287 285 284 283 283 283 283 284 284 282 282 282